NORTHERN QUEENS  -  Air Quality Alert Air Quality Alert        SOUTHERN QUEENS  -  Air Quality Alert Air Quality Alert      

Active alerts

Northern Queens
  Details for Northern Queens Air Quality Alert
Southern Queens
  Details for Southern Queens Air Quality Alert


WXM80 ListenWXM80 Stop

You find our weather info also at:

UK Metoffice

WeatherCloud

Weather Underground

Northeastern Weather Network

AWEKAS

Citizen Weather Observer Program (CWOP)

HAMweather, WeatherForYou, PWS Weather


Weather Underground History page Text

Daily Summary for November 14, 2017 Units:  Metric    English   Both
« Previous Day
Next Day »
Daily Weekly Monthly Yearly Custom
  High: Low: Average:
Temperature: 6.8 °C 4.2 °C 5.6 °C
Dew Point: 4.7 °C 2.1 °C 3.2 °C
Humidity: 91 % 77 % 85 %
Wind Speed: 13.8 km/h 1.3 km/h 6.1 km/h
Wind Gust: 22.2 km/h - -
Wind:- - ENE
Pressure: 1027 hPa 1017.5 hPa -
Precipitation: 0 mm    
Historical Graphs
 
 
Tabular Data for November 14, 2017
Time Temperature Dew Point Pressure Wind Wind Speed Wind Gust Humidity Rainfall Rate (Hourly)
00:02 5.1 °C 3.1 °C 1024.9 hPa NNE 6.3 km/h 13 km/h 87 % 0 mm
00:07 5.1 °C 3.1 °C 1024.6 hPa NNE 9.5 km/h 14.8 km/h 87 % 0 mm
00:12 5 °C 3 °C 1024.9 hPa North 6.4 km/h 20.4 km/h 87 % 0 mm
00:18 4.9 °C 2.9 °C 1024.9 hPa North 6 km/h 9.3 km/h 87 % 0 mm
00:23 4.9 °C 2.9 °C 1024.6 hPa NNE 7.1 km/h 16.1 km/h 87 % 0 mm
00:28 4.8 °C 2.8 °C 1024.9 hPa NNE 9.7 km/h 13 km/h 87 % 0 mm
00:33 4.8 °C 2.8 °C 1025.3 hPa NNE 8.5 km/h 11.3 km/h 87 % 0 mm
00:38 4.7 °C 2.7 °C 1025.3 hPa NNE 7.6 km/h 11.1 km/h 87 % 0 mm
00:43 4.7 °C 2.7 °C 1025.3 hPa NNE 9 km/h 16.7 km/h 87 % 0 mm
00:48 4.7 °C 2.8 °C 1025.3 hPa NE 6.8 km/h 22.2 km/h 88 % 0 mm
00:53 4.7 °C 2.7 °C 1025.3 hPa ENE 3.5 km/h 13 km/h 87 % 0 mm
00:58 4.6 °C 2.6 °C 1025.3 hPa NNE 6.9 km/h 11.1 km/h 87 % 0 mm
01:03 4.6 °C 2.6 °C 1025.3 hPa NNE 11.3 km/h 18.5 km/h 87 % 0 mm
01:08 4.5 °C 2.5 °C 1025.3 hPa ENE 6.8 km/h 13 km/h 87 % 0 mm
01:13 4.4 °C 2.4 °C 1025.3 hPa NNE 6.6 km/h 13 km/h 87 % 0 mm
01:18 4.4 °C 2.4 °C 1025.3 hPa North 8.4 km/h 16.7 km/h 87 % 0 mm
01:23 4.3 °C 2.5 °C 1025.3 hPa NNW 6.6 km/h 13 km/h 88 % 0 mm
01:28 4.3 °C 2.5 °C 1025.3 hPa NNE 11.6 km/h 18.5 km/h 88 % 0 mm
01:33 4.3 °C 2.4 °C 1025.3 hPa NNW 7.6 km/h 16.1 km/h 88 % 0 mm
01:38 4.3 °C 2.4 °C 1025.3 hPa North 7.6 km/h 11.1 km/h 88 % 0 mm
01:44 4.3 °C 2.4 °C 1025.3 hPa NE 8.2 km/h 14.8 km/h 88 % 0 mm
01:49 4.3 °C 2.4 °C 1025.6 hPa NNE 5.5 km/h 11.1 km/h 88 % 0 mm
01:55 4.3 °C 2.4 °C 1025.6 hPa North 12.2 km/h 17.7 km/h 88 % 0 mm
02:00 4.2 °C 2.2 °C 1025.6 hPa NNE 6.4 km/h 16.7 km/h 87 % 0 mm
02:05 4.2 °C 2.2 °C 1025.6 hPa North 7.2 km/h 18.5 km/h 87 % 0 mm
02:10 4.2 °C 2.3 °C 1025.6 hPa North 10.1 km/h 18.5 km/h 88 % 0 mm
02:15 4.2 °C 2.4 °C 1025.6 hPa NNE 4.2 km/h 12.9 km/h 88 % 0 mm
02:20 4.2 °C 2.4 °C 1025.6 hPa NNE 6.4 km/h 9.3 km/h 88 % 0 mm
02:25 4.2 °C 2.6 °C 1025.6 hPa NNE 3.1 km/h 9.3 km/h 89 % 0 mm
02:30 4.2 °C 2.6 °C 1025.6 hPa NE 4.5 km/h 16.7 km/h 89 % 0 mm
02:35 4.2 °C 2.6 °C 1024.9 hPa NE 4 km/h 11.1 km/h 89 % 0 mm
02:40 4.2 °C 2.6 °C 1024.9 hPa NNE 8.4 km/h 14.8 km/h 89 % 0 mm
02:45 4.3 °C 2.6 °C 1024.6 hPa ENE 8 km/h 12.9 km/h 89 % 0 mm
02:50 4.3 °C 2.6 °C 1024.9 hPa North 9.7 km/h 14.8 km/h 89 % 0 mm
02:55 4.3 °C 2.6 °C 1025.6 hPa NNE 7.6 km/h 13 km/h 89 % 0 mm
03:00 4.3 °C 2.6 °C 1024.9 hPa North 5.5 km/h 11.1 km/h 89 % 0 mm
03:05 4.3 °C 2.6 °C 1024.9 hPa NNE 8 km/h 18.5 km/h 89 % 0 mm
03:11 4.3 °C 2.6 °C 1025.3 hPa NE 8.2 km/h 14.8 km/h 89 % 0 mm
03:15 4.3 °C 2.6 °C 1024.9 hPa North 5.8 km/h 11.1 km/h 89 % 0 mm
03:20 4.2 °C 2.6 °C 1024.9 hPa North 6.6 km/h 6.6 km/h 89 % 0 mm
03:26 4.2 °C 2.6 °C 1025.3 hPa North 8 km/h 13 km/h 89 % 0 mm
03:31 4.2 °C 2.6 °C 1025.3 hPa North 9.7 km/h 14.5 km/h 89 % 0 mm
03:36 4.2 °C 2.7 °C 1025.3 hPa North 8 km/h 14.5 km/h 90 % 0 mm
03:41 4.3 °C 2.8 °C 1025.3 hPa North 4.8 km/h 12.9 km/h 90 % 0 mm
03:46 4.3 °C 2.8 °C 1025.3 hPa North 4.8 km/h 14.5 km/h 90 % 0 mm
03:51 4.3 °C 2.8 °C 1025.3 hPa North 8 km/h 11.3 km/h 90 % 0 mm
03:56 4.3 °C 2.8 °C 1025.6 hPa North 1.6 km/h 12.9 km/h 90 % 0 mm
04:01 4.4 °C 2.9 °C 1024.9 hPa North 7.7 km/h 13 km/h 90 % 0 mm
04:06 4.4 °C 3.1 °C 1025.3 hPa NNE 4.7 km/h 11.1 km/h 91 % 0 mm
04:11 4.4 °C 3.1 °C 1025.6 hPa NNE 8 km/h 13 km/h 91 % 0 mm
04:16 4.4 °C 3.1 °C 1025.6 hPa North 9.2 km/h 16.7 km/h 91 % 0 mm
04:21 4.5 °C 3.2 °C 1025.3 hPa North 6.6 km/h 9.3 km/h 91 % 0 mm
04:26 4.6 °C 3.2 °C 1025.6 hPa NNE 6.9 km/h 14.8 km/h 91 % 0 mm
04:31 4.5 °C 3 °C 1025.6 hPa NNE 6.8 km/h 9.3 km/h 90 % 0 mm
04:36 4.6 °C 3.1 °C 1025.6 hPa North 6 km/h 11.1 km/h 90 % 0 mm
04:41 4.6 °C 3.1 °C 1024.9 hPa NNE 5.8 km/h 8 km/h 90 % 0 mm
04:46 4.6 °C 3.1 °C 1024.9 hPa North 8.5 km/h 11.1 km/h 90 % 0 mm
04:51 4.7 °C 3.2 °C 1024.9 hPa NNE 6.4 km/h 11.1 km/h 90 % 0 mm
04:56 4.7 °C 3.2 °C 1024.9 hPa NNE 7.9 km/h 11.1 km/h 90 % 0 mm
05:01 4.7 °C 3.2 °C 1024.9 hPa NNE 7.7 km/h 14.8 km/h 90 % 0 mm
05:06 4.7 °C 3.2 °C 1024.9 hPa North 3.2 km/h 5.6 km/h 90 % 0 mm
05:11 4.7 °C 3.4 °C 1025.3 hPa North 9 km/h 14.8 km/h 91 % 0 mm
05:16 4.8 °C 3.3 °C 1025.3 hPa North 5.6 km/h 8 km/h 90 % 0 mm
05:21 4.8 °C 3.4 °C 1024.9 hPa NNE 6.3 km/h 8 km/h 91 % 0 mm
05:26 4.8 °C 3.5 °C 1024.9 hPa NE 3.4 km/h 7.4 km/h 91 % 0 mm
05:31 4.8 °C 3.5 °C 1024.6 hPa NNE 8.2 km/h 16.1 km/h 91 % 0 mm
05:36 4.9 °C 3.6 °C 1024.9 hPa NE 5 km/h 11.1 km/h 91 % 0 mm
05:41 4.9 °C 3.6 °C 1024.9 hPa NNE 2.1 km/h 5.6 km/h 91 % 0 mm
05:46 4.9 °C 3.6 °C 1024.9 hPa North 8 km/h 13 km/h 91 % 0 mm
05:51 5 °C 3.5 °C 1024.9 hPa NNE 8.4 km/h 14.5 km/h 90 % 0 mm
05:56 5 °C 3.5 °C 1024.9 hPa NNE 8 km/h 16.1 km/h 90 % 0 mm
06:01 5.1 °C 3.6 °C 1024.9 hPa NNE 3.1 km/h 11.1 km/h 90 % 0 mm
06:06 5.1 °C 3.6 °C 1024.9 hPa NNE 6.4 km/h 9.3 km/h 90 % 0 mm
06:11 5.1 °C 3.4 °C 1024.9 hPa North 4.8 km/h 8 km/h 89 % 0 mm
06:16 5.1 °C 3.4 °C 1024.9 hPa North 13.8 km/h 18.5 km/h 89 % 0 mm
06:21 5.2 °C 3.5 °C 1024.9 hPa North 9.2 km/h 11.1 km/h 89 % 0 mm
06:26 5.2 °C 3.5 °C 1025.3 hPa NE 4.7 km/h 9.7 km/h 89 % 0 mm
06:31 5.2 °C 3.7 °C 1025.3 hPa NNE 1.6 km/h 5.6 km/h 90 % 0 mm
06:36 5.2 °C 3.7 °C 1025.3 hPa NNE 7.6 km/h 13 km/h 90 % 0 mm
06:41 5.2 °C 3.6 °C 1025.3 hPa NNE 3.9 km/h 5.6 km/h 89 % 0 mm
06:46 5.3 °C 3.6 °C 1025.3 hPa NE 7.7 km/h 13 km/h 89 % 0 mm
06:51 5.3 °C 3.6 °C 1025.3 hPa NNE 4 km/h 8 km/h 89 % 0 mm
06:56 5.3 °C 3.6 °C 1025.3 hPa NNE 2.7 km/h 7.4 km/h 89 % 0 mm
07:01 5.3 °C 3.7 °C 1025.3 hPa NNE 8.2 km/h 14.8 km/h 89 % 0 mm
07:06 5.3 °C 3.7 °C 1025.3 hPa NE 6.4 km/h 6.4 km/h 89 % 0 mm
07:12 5.4 °C 3.7 °C 1025.6 hPa NNE 11.3 km/h 16.7 km/h 89 % 0 mm
07:17 5.4 °C 3.6 °C 1025.6 hPa NNE 8.5 km/h 16.7 km/h 88 % 0 mm
07:22 5.4 °C 3.6 °C 1025.6 hPa NE 4.8 km/h 16.7 km/h 88 % 0 mm
07:27 5.4 °C 3.6 °C 1025.6 hPa NNE 6.1 km/h 18.5 km/h 88 % 0 mm
07:32 5.5 °C 3.7 °C 1025.6 hPa NNE 7.4 km/h 13 km/h 88 % 0 mm
07:37 5.5 °C 3.7 °C 1026 hPa ENE 5 km/h 11.1 km/h 88 % 0 mm
07:42 5.5 °C 3.7 °C 1026 hPa North 8.4 km/h 18.5 km/h 88 % 0 mm
07:47 5.6 °C 3.6 °C 1026 hPa NNE 10.6 km/h 16.7 km/h 87 % 0 mm
07:52 5.6 °C 3.6 °C 1026 hPa North 5.1 km/h 9.7 km/h 87 % 0 mm
07:57 5.6 °C 3.6 °C 1026 hPa North 4.7 km/h 9.3 km/h 87 % 0 mm
08:02 5.6 °C 3.6 °C 1026 hPa NNE 9.5 km/h 13 km/h 87 % 0 mm
08:07 5.6 °C 3.6 °C 1026 hPa NNE 8.9 km/h 13 km/h 87 % 0 mm
08:12 5.7 °C 3.7 °C 1026 hPa NE 8.4 km/h 11.3 km/h 87 % 0 mm
08:17 5.7 °C 3.7 °C 1026 hPa North 7.1 km/h 12.9 km/h 87 % 0 mm
08:22 5.7 °C 3.7 °C 1026 hPa North 7.2 km/h 11.1 km/h 87 % 0 mm
08:27 5.8 °C 3.8 °C 1026 hPa NNE 7.6 km/h 11.1 km/h 87 % 0 mm
08:32 5.8 °C 3.8 °C 1026 hPa North 4.3 km/h 5.6 km/h 87 % 0 mm
08:37 5.8 °C 3.8 °C 1026 hPa NE 4.7 km/h 9.3 km/h 87 % 0 mm
08:42 5.9 °C 3.9 °C 1026 hPa North 4.3 km/h 9.3 km/h 87 % 0 mm
08:47 5.9 °C 4.1 °C 1026 hPa NE 7.9 km/h 11.1 km/h 88 % 0 mm
08:52 5.9 °C 4.1 °C 1026 hPa NE 5.8 km/h 11.1 km/h 88 % 0 mm
08:57 6 °C 4.2 °C 1026 hPa East 6.6 km/h 9.7 km/h 88 % 0 mm
09:02 6.1 °C 4.2 °C 1026 hPa NNE 8.5 km/h 14.8 km/h 88 % 0 mm
09:07 6.1 °C 4.2 °C 1026 hPa ENE 8.2 km/h 11.3 km/h 88 % 0 mm
09:12 6.2 °C 4.3 °C 1026 hPa NE 4 km/h 7.4 km/h 88 % 0 mm
09:17 6.2 °C 4.3 °C 1026 hPa North 4.5 km/h 11.1 km/h 88 % 0 mm
09:19 6.2 °C 4.3 °C 1026 hPa North 6.6 km/h 14.8 km/h 88 % 0 mm
09:25 6.2 °C 4.4 °C 1026 hPa NE 7.1 km/h 13 km/h 88 % 0 mm
09:30 6.2 °C 4.4 °C 1026 hPa North 3.1 km/h 7.4 km/h 88 % 0 mm
09:35 6.2 °C 4.4 °C 1026.3 hPa North 2.9 km/h 11.1 km/h 88 % 0 mm
09:40 6.2 °C 4.6 °C 1026 hPa ENE 4.7 km/h 14.8 km/h 89 % 0 mm
09:45 6.2 °C 4.6 °C 1026 hPa North 9.7 km/h 13 km/h 89 % 0 mm
09:50 6.2 °C 4.6 °C 1026.3 hPa NNE 7.7 km/h 11.3 km/h 89 % 0 mm
09:55 6.2 °C 4.6 °C 1026 hPa NE 5.8 km/h 11.1 km/h 89 % 0 mm
10:00 6.2 °C 4.6 °C 1026.3 hPa North 9.7 km/h 14.8 km/h 89 % 0 mm
10:05 6.2 °C 4.6 °C 1026.3 hPa East 8.5 km/h 13 km/h 89 % 0 mm
10:10 6.2 °C 4.5 °C 1026.3 hPa NNE 4.2 km/h 8 km/h 89 % 0 mm
10:15 6.2 °C 4.7 °C 1026 hPa NNE 2.6 km/h 7.4 km/h 90 % 0 mm
10:20 6.2 °C 4.7 °C 1026 hPa NNE 6.6 km/h 13 km/h 90 % 0 mm
10:25 6.2 °C 4.7 °C 1026 hPa NNE 5.5 km/h 11.1 km/h 90 % 0 mm
10:30 6.2 °C 4.7 °C 1026 hPa NNE 5.6 km/h 11.3 km/h 90 % 0 mm
10:35 6.2 °C 4.7 °C 1026 hPa NNE 6.6 km/h 12.9 km/h 90 % 0 mm
10:40 6.1 °C 4.6 °C 1026 hPa North 4.2 km/h 7.4 km/h 90 % 0 mm
10:45 6.1 °C 4.6 °C 1026 hPa North 5.6 km/h 11.1 km/h 90 % 0 mm
10:50 6.1 °C 4.6 °C 1025.6 hPa NNE 9.7 km/h 19.3 km/h 90 % 0 mm
10:56 6.1 °C 4.6 °C 1026 hPa NNE 8 km/h 12.9 km/h 90 % 0 mm
11:01 6.1 °C 4.6 °C 1025.6 hPa North 6 km/h 9.7 km/h 90 % 0 mm
11:06 6.1 °C 4.6 °C 1027 hPa North 4.3 km/h 7.4 km/h 90 % 0 mm
11:11 6.1 °C 4.6 °C 1027 hPa NNE 10.6 km/h 16.7 km/h 90 % 0 mm
11:16 6.1 °C 4.6 °C 1027 hPa ENE 4.5 km/h 14.5 km/h 90 % 0 mm
11:21 6.1 °C 4.6 °C 1027 hPa ENE 5.6 km/h 11.1 km/h 90 % 0 mm
11:26 6.1 °C 4.6 °C 1027 hPa NE 1.9 km/h 5.6 km/h 90 % 0 mm
11:31 6.1 °C 4.6 °C 1026.6 hPa NNE 6.3 km/h 11.1 km/h 90 % 0 mm
11:36 6.1 °C 4.6 °C 1026.6 hPa NE 2.3 km/h 7.4 km/h 90 % 0 mm
11:41 6.1 °C 4.6 °C 1026.6 hPa North 2.3 km/h 4.8 km/h 90 % 0 mm
11:46 6.1 °C 4.6 °C 1026.6 hPa ENE 6 km/h 11.1 km/h 90 % 0 mm
11:51 6.1 °C 4.4 °C 1025.6 hPa ENE 5.8 km/h 8 km/h 89 % 0 mm
11:56 6.1 °C 4.4 °C 1026.6 hPa NE 6 km/h 11.3 km/h 89 % 0 mm
12:01 6.1 °C 4.4 °C 1026.6 hPa NNE 4.3 km/h 9.3 km/h 89 % 0 mm
12:06 6.1 °C 4.6 °C 1025.6 hPa ENE 4.3 km/h 8 km/h 90 % 0 mm
12:11 6.1 °C 4.4 °C 1026.6 hPa East 6 km/h 11.1 km/h 89 % 0 mm
12:16 6.1 °C 4.4 °C 1026.6 hPa NNE 3.7 km/h 7.4 km/h 89 % 0 mm
12:21 6.1 °C 4.4 °C 1026.6 hPa NE 1.3 km/h 5.6 km/h 89 % 0 mm
12:26 6.2 °C 4.5 °C 1025.3 hPa ENE 5.8 km/h 9.3 km/h 89 % 0 mm
12:31 6.2 °C 4.5 °C 1024.9 hPa ENE 4.5 km/h 5.6 km/h 89 % 0 mm
12:36 6.2 °C 4.5 °C 1024.9 hPa NE 8.4 km/h 11.3 km/h 89 % 0 mm
12:38 6.2 °C 4.3 °C 1024.9 hPa ENE 6.8 km/h 13 km/h 88 % 0 mm
12:43 6.2 °C 4.3 °C 1024.9 hPa ENE 4.5 km/h 13 km/h 88 % 0 mm
12:48 6.2 °C 4.4 °C 1024.9 hPa NNE 2.9 km/h 9.7 km/h 88 % 0 mm
12:53 6.2 °C 4.4 °C 1024.9 hPa ENE 2.3 km/h 5.6 km/h 88 % 0 mm
12:58 6.3 °C 4.4 °C 1024.9 hPa NNE 7.6 km/h 13 km/h 88 % 0 mm
13:03 6.3 °C 4.5 °C 1024.6 hPa ENE 9.7 km/h 13 km/h 88 % 0 mm
13:08 6.3 °C 4.3 °C 1024.9 hPa NE 5.6 km/h 7.4 km/h 87 % 0 mm
13:13 6.4 °C 4.4 °C 1024.9 hPa NNE 5.6 km/h 14.8 km/h 87 % 0 mm
13:18 6.4 °C 4.4 °C 1024.6 hPa NNE 4.3 km/h 9.3 km/h 87 % 0 mm
13:23 6.4 °C 4.3 °C 1024.6 hPa North 4.2 km/h 11.1 km/h 86 % 0 mm
13:29 6.5 °C 4.3 °C 1024.9 hPa NNE 4.2 km/h 11.1 km/h 86 % 0 mm
13:34 6.6 °C 4.2 °C 1024.9 hPa NNE 5.5 km/h 13 km/h 85 % 0 mm
13:39 6.6 °C 4.2 °C 1024.9 hPa NE 5.5 km/h 11.1 km/h 85 % 0 mm
13:44 6.6 °C 4.3 °C 1024.9 hPa NNW 7.9 km/h 18.5 km/h 85 % 0 mm
13:49 6.6 °C 4.3 °C 1024.6 hPa ENE 3.9 km/h 16.7 km/h 85 % 0 mm
13:54 6.6 °C 4.2 °C 1024.9 hPa NNE 5.8 km/h 12.9 km/h 85 % 0 mm
13:59 6.6 °C 4.1 °C 1024.9 hPa NNE 6.6 km/h 14.8 km/h 84 % 0 mm
14:04 6.6 °C 4.1 °C 1024.6 hPa NNE 6.8 km/h 14.5 km/h 84 % 0 mm
14:09 6.6 °C 3.9 °C 1024.3 hPa ENE 7.4 km/h 16.7 km/h 83 % 0 mm
14:14 6.7 °C 4 °C 1024.6 hPa NNE 3.9 km/h 9.3 km/h 83 % 0 mm
14:19 6.7 °C 4 °C 1024.6 hPa North 6.6 km/h 9.7 km/h 83 % 0 mm
14:21 6.7 °C 4 °C 1024.6 hPa NE 8 km/h 14.5 km/h 83 % 0 mm
14:26 6.7 °C 4.1 °C 1024.6 hPa NE 3.2 km/h 11.3 km/h 83 % 0 mm
14:31 6.8 °C 3.9 °C 1025.3 hPa NE 8 km/h 11.3 km/h 82 % 0 mm
14:36 6.7 °C 3.7 °C 1024.9 hPa ENE 9.7 km/h 16.1 km/h 81 % 0 mm
14:41 6.7 °C 3.6 °C 1024.9 hPa ENE 4.8 km/h 16.1 km/h 81 % 0 mm
14:46 6.6 °C 3.6 °C 1024.9 hPa NE 4.8 km/h 19.3 km/h 81 % 0 mm
14:51 6.6 °C 3.5 °C 1024.9 hPa ENE 8 km/h 19.3 km/h 81 % 0 mm
14:56 6.5 °C 3.5 °C 1025.3 hPa ENE 4.8 km/h 14.5 km/h 81 % 0 mm
15:01 6.4 °C 3.4 °C 1025.3 hPa NE 9.7 km/h 13 km/h 81 % 0 mm
15:06 6.4 °C 3.6 °C 1024.9 hPa NE 3.2 km/h 14.5 km/h 82 % 0 mm
15:11 6.4 °C 3.8 °C 1025.3 hPa NNE 8 km/h 14.5 km/h 83 % 0 mm
15:16 6.4 °C 3.8 °C 1025.3 hPa NNE 3.2 km/h 9.7 km/h 83 % 0 mm
15:21 6.4 °C 3.6 °C 1024.9 hPa NE 3.2 km/h 11.3 km/h 82 % 0 mm
15:26 6.4 °C 3.6 °C 1025.3 hPa NE 8 km/h 16.1 km/h 82 % 0 mm
15:31 6.3 °C 3.3 °C 1024.9 hPa ENE 9.7 km/h 16.1 km/h 81 % 0 mm
15:36 6.3 °C 3.3 °C 1024.9 hPa ENE 8 km/h 14.5 km/h 81 % 0 mm
15:41 6.2 °C 3.2 °C 1024.9 hPa ENE 4.8 km/h 12.9 km/h 81 % 0 mm
15:46 6.2 °C 3.2 °C 1025.3 hPa ENE 4.8 km/h 14.5 km/h 81 % 0 mm
15:51 6.2 °C 3.2 °C 1025.3 hPa ENE 1.6 km/h 8 km/h 81 % 0 mm
15:56 6.2 °C 3.2 °C 1025.3 hPa NE 3.2 km/h 11.3 km/h 81 % 0 mm
16:01 6.2 °C 3.2 °C 1024.9 hPa ENE 4.3 km/h 11.1 km/h 81 % 0 mm
16:06 6.1 °C 3.1 °C 1024.9 hPa North 6.1 km/h 9.7 km/h 81 % 0 mm
16:11 6.1 °C 3.3 °C 1024.9 hPa ENE 3.2 km/h 11.3 km/h 82 % 0 mm
16:16 6.1 °C 3.3 °C 1024.9 hPa NE 4.8 km/h 11.3 km/h 82 % 0 mm
16:21 6.1 °C 3.4 °C 1024.9 hPa NNE 9.7 km/h 14.5 km/h 83 % 0 mm
16:26 6.1 °C 3.4 °C 1024.9 hPa NNE 4.8 km/h 11.3 km/h 83 % 0 mm
16:31 6.1 °C 3.3 °C 1024.9 hPa NNE 6.8 km/h 11.1 km/h 82 % 0 mm
16:36 6.1 °C 3.4 °C 1024.9 hPa North 4 km/h 6.4 km/h 83 % 0 mm
16:41 6.1 °C 3.2 °C 1025.3 hPa NNE 8 km/h 11.3 km/h 82 % 0 mm
16:46 6.1 °C 3.2 °C 1024.9 hPa NNE 1.8 km/h 5.6 km/h 82 % 0 mm
16:51 6.1 °C 3.2 °C 1025.3 hPa NNE 3.2 km/h 11.3 km/h 82 % 0 mm
16:56 6.1 °C 3.1 °C 1025.3 hPa NNE 3.2 km/h 11.3 km/h 81 % 0 mm
17:01 6 °C 3 °C 1024.9 hPa ENE 3.7 km/h 5.6 km/h 81 % 0 mm
17:06 6 °C 3 °C 1025.3 hPa NE 3.7 km/h 9.3 km/h 81 % 0 mm
17:11 6 °C 3 °C 1025.3 hPa NE 6.3 km/h 8 km/h 81 % 0 mm
17:16 6 °C 3 °C 1025.3 hPa NNE 3.4 km/h 7.4 km/h 81 % 0 mm
17:21 6 °C 3 °C 1025.3 hPa ENE 5.3 km/h 11.1 km/h 81 % 0 mm
17:26 6 °C 2.8 °C 1025.3 hPa NNE 2.6 km/h 9.3 km/h 80 % 0 mm
17:31 6 °C 3 °C 1025.3 hPa NNE 3.1 km/h 5.6 km/h 81 % 0 mm
17:36 6 °C 3 °C 1025.3 hPa NNE 5.5 km/h 11.1 km/h 81 % 0 mm
17:41 6 °C 2.8 °C 1025.3 hPa North 9.3 km/h 13 km/h 80 % 0 mm
17:46 6 °C 2.6 °C 1025.3 hPa North 8.5 km/h 14.8 km/h 79 % 0 mm
17:51 6 °C 2.6 °C 1025.3 hPa North 2.7 km/h 5.6 km/h 79 % 0 mm
17:56 5.9 °C 2.6 °C 1025.6 hPa NNE 6.3 km/h 11.1 km/h 79 % 0 mm
18:01 5.9 °C 2.4 °C 1025.3 hPa NNE 4.8 km/h 9.3 km/h 78 % 0 mm
18:06 5.9 °C 2.4 °C 1025.6 hPa NNE 7.9 km/h 9.7 km/h 78 % 0 mm
18:11 5.9 °C 2.4 °C 1025.6 hPa NNE 6 km/h 11.1 km/h 78 % 0 mm
18:16 5.9 °C 2.4 °C 1025.6 hPa ENE 4.5 km/h 7.4 km/h 78 % 0 mm
18:21 5.9 °C 2.4 °C 1025.6 hPa NNE 4.8 km/h 9.3 km/h 78 % 0 mm
18:27 6 °C 2.4 °C 1025.6 hPa ENE 2.3 km/h 5.6 km/h 78 % 0 mm
18:32 5.9 °C 2.4 °C 1025.6 hPa NE 6.4 km/h 8 km/h 78 % 0 mm
18:37 5.9 °C 2.4 °C 1025.6 hPa NNE 1.9 km/h 5.6 km/h 78 % 0 mm
18:42 5.9 °C 2.4 °C 1025.6 hPa NNE 4.2 km/h 11.1 km/h 78 % 0 mm
18:47 5.9 °C 2.4 °C 1025.6 hPa NNE 5.1 km/h 9.3 km/h 78 % 0 mm
18:52 5.9 °C 2.2 °C 1025.6 hPa NNE 2.3 km/h 8 km/h 77 % 0 mm
18:57 5.9 °C 2.4 °C 1025.6 hPa North 2.3 km/h 6.4 km/h 78 % 0 mm
19:02 5.9 °C 2.4 °C 1025.6 hPa North 5.8 km/h 11.1 km/h 78 % 0 mm
19:07 5.9 °C 2.2 °C 1025.6 hPa North 7.6 km/h 13 km/h 77 % 0 mm
19:12 5.9 °C 2.2 °C 1025.6 hPa NNE 9.3 km/h 13 km/h 77 % 0 mm
19:17 5.9 °C 2.2 °C 1025.6 hPa North 7.4 km/h 14.8 km/h 77 % 0 mm
19:22 5.9 °C 2.2 °C 1025.3 hPa NNE 9.7 km/h 13 km/h 77 % 0 mm
19:27 5.9 °C 2.2 °C 1025.6 hPa North 4.5 km/h 5.6 km/h 77 % 0 mm
19:32 5.9 °C 2.2 °C 1025.3 hPa NE 4.3 km/h 9.3 km/h 77 % 0 mm
19:37 5.8 °C 2.1 °C 1025.3 hPa NNE 1.4 km/h 13 km/h 77 % 0 mm
19:42 5.8 °C 2.1 °C 1025.3 hPa North 8.7 km/h 13 km/h 77 % 0 mm
19:47 5.8 °C 2.1 °C 1025.3 hPa NE 7.1 km/h 9.3 km/h 77 % 0 mm
19:53 5.8 °C 2.1 °C 1025.3 hPa NNE 6.8 km/h 14.8 km/h 77 % 0 mm
19:58 5.8 °C 2.1 °C 1025.6 hPa NNE 6.1 km/h 11.3 km/h 77 % 0 mm
20:03 5.8 °C 2.1 °C 1025.6 hPa NE 4.8 km/h 13 km/h 77 % 0 mm
20:08 5.8 °C 2.1 °C 1025.6 hPa ENE 5 km/h 7.4 km/h 77 % 0 mm
20:13 5.8 °C 2.3 °C 1025.3 hPa NE 5.5 km/h 11.1 km/h 78 % 0 mm
20:18 5.8 °C 2.3 °C 1025.6 hPa NE 3.5 km/h 13 km/h 78 % 0 mm
20:23 5.8 °C 2.3 °C 1025.6 hPa NNE 5.6 km/h 13 km/h 78 % 0 mm
20:28 5.8 °C 2.3 °C 1025.6 hPa ENE 6.8 km/h 13 km/h 78 % 0 mm
20:33 5.8 °C 2.3 °C 1026.3 hPa ENE 6.6 km/h 9.3 km/h 78 % 0 mm
20:38 5.8 °C 2.3 °C 1026 hPa ENE 7.4 km/h 13 km/h 78 % 0 mm
20:43 5.8 °C 2.1 °C 1026.3 hPa ENE 5.3 km/h 13 km/h 77 % 0 mm
20:48 5.8 °C 2.3 °C 1026.3 hPa NE 5.8 km/h 11.3 km/h 78 % 0 mm
20:53 5.8 °C 2.2 °C 1026 hPa NE 8.2 km/h 13 km/h 78 % 0 mm
20:58 5.8 °C 2.2 °C 1026.3 hPa East 6.1 km/h 14.5 km/h 78 % 0 mm
21:03 5.8 °C 2.2 °C 1026.3 hPa NE 5.3 km/h 9.3 km/h 78 % 0 mm
21:08 5.8 °C 2.4 °C 1026.3 hPa East 6.9 km/h 14.5 km/h 79 % 0 mm
21:13 5.7 °C 2.2 °C 1026 hPa NE 5.8 km/h 13 km/h 78 % 0 mm
21:18 5.7 °C 2.4 °C 1026 hPa NNE 3.1 km/h 7.4 km/h 79 % 0 mm
21:23 5.7 °C 2.3 °C 1026 hPa ENE 7.6 km/h 13 km/h 79 % 0 mm
21:28 5.7 °C 2.3 °C 1026 hPa North 4.2 km/h 13 km/h 79 % 0 mm
21:33 5.6 °C 2.3 °C 1026 hPa NE 5.1 km/h 11.1 km/h 79 % 0 mm
21:38 5.6 °C 2.3 °C 1026 hPa ENE 6.3 km/h 13 km/h 79 % 0 mm
21:43 5.6 °C 2.2 °C 1026 hPa ENE 6.4 km/h 13 km/h 79 % 0 mm
21:48 5.6 °C 2.2 °C 1026 hPa NE 4.5 km/h 8 km/h 79 % 0 mm
21:53 5.6 °C 2.2 °C 1026 hPa East 5.6 km/h 11.3 km/h 79 % 0 mm
21:58 5.6 °C 2.4 °C 1026 hPa NE 4.5 km/h 7.4 km/h 80 % 0 mm
22:03 5.5 °C 2.2 °C 1026 hPa ENE 6.1 km/h 9.3 km/h 79 % 0 mm
22:08 5.5 °C 2.3 °C 1026 hPa NE 3.2 km/h 9.3 km/h 80 % 0 mm
22:15 5.5 °C 2.3 °C 1026 hPa NE 5.3 km/h 9.7 km/h 80 % 0 mm
22:20 5.5 °C 2.5 °C 1025.6 hPa North 4.7 km/h 9.7 km/h 81 % 0 mm
22:23 5.4 °C 2.4 °C 1017.5 hPa NE 7.1 km/h 14.8 km/h 81 % 0 mm
22:25 5.4 °C 2.4 °C 1025.6 hPa NE 7.9 km/h 11.1 km/h 81 % 0 mm
22:28 5.4 °C 2.4 °C 1025.6 hPa ENE 7.9 km/h 14.8 km/h 81 % 0 mm
22:33 5.4 °C 2.4 °C 1025.6 hPa ENE 3.4 km/h 9.7 km/h 81 % 0 mm
22:38 5.4 °C 2.3 °C 1025.6 hPa East 8.9 km/h 9.7 km/h 80 % 0 mm
22:43 5.5 °C 2.5 °C 1026 hPa ENE 6.3 km/h 14.5 km/h 81 % 0 mm
22:48 5.5 °C 2.3 °C 1026 hPa ENE 5.1 km/h 13 km/h 80 % 0 mm
22:53 5.5 °C 2.5 °C 1025.6 hPa East 5.8 km/h 12.9 km/h 81 % 0 mm
22:58 5.5 °C 2.5 °C 1025.6 hPa ENE 3.7 km/h 7.4 km/h 81 % 0 mm
23:03 5.5 °C 2.5 °C 1025.6 hPa ENE 3.5 km/h 5.6 km/h 81 % 0 mm
23:08 5.5 °C 2.5 °C 1025.6 hPa NE 6.1 km/h 11.3 km/h 81 % 0 mm
23:13 5.6 °C 2.6 °C 1025.6 hPa ENE 10.3 km/h 14.8 km/h 81 % 0 mm
23:18 5.6 °C 2.6 °C 1025.6 hPa North 5.8 km/h 11.1 km/h 81 % 0 mm
23:23 5.5 °C 2.5 °C 1025.6 hPa NNE 7.9 km/h 14.8 km/h 81 % 0 mm
23:28 5.5 °C 2.5 °C 1025.6 hPa NNE 7.7 km/h 11.1 km/h 81 % 0 mm
23:33 5.5 °C 2.7 °C 1026 hPa ENE 8.5 km/h 13 km/h 82 % 0 mm
23:38 5.4 °C 2.6 °C 1026 hPa ENE 5.5 km/h 11.3 km/h 82 % 0 mm
23:43 5.5 °C 2.7 °C 1025.6 hPa ENE 9.7 km/h 14.8 km/h 82 % 0 mm
23:48 5.5 °C 2.7 °C 1025.6 hPa ENE 5.6 km/h 9.3 km/h 82 % 0 mm
23:53 5.5 °C 2.5 °C 1025.6 hPa ENE 9.8 km/h 16.7 km/h 81 % 0 mm
23:58 5.5 °C 2.7 °C 1025.6 hPa ENE 8.5 km/h 14.8 km/h 82 % 0 mm
Crab Meadow Weather
Compliments of Weather Underground - 3 mb

Script developed by  Jim McMurry - jmcmurry@mwt.net Adapted for the template by  Wim van der Kuil - Leuven-Template.eu

Weather Terms: Heat Advisory - Maximum heat index of 105 to 110°F with a minimum of 75°F for two or more consecutive days.